Tracking 19149 objects as of 20-Apr-2018
HD Live streaming from Space Station
objects crossing your sky now

LEMUR 2 XIAOQING

Track LEMUR 2 XIAOQING now!
10-day predictions
LEMUR 2 XIAOQING is classified as:


NORAD ID: 41871
Int'l Code: 2016-062C
Perigee: 496.8 km
Apogee: 504.5 km
Inclination: 51.6 °
Period: 94.5 minutes
Semi major axis: 6871 km
RCS: Unknown
Launch date: October 17, 2016
Source: (USA)
Launch site: WALLOPS ISLAND (WLPIS)
aabbcc
Your satellite tracking list
Your tracking list is empty




NASA's NSSDC Master Catalog

Two Line Element Set (TLE):
1 41871U 16062C   18109.89530950 +.00002745 +00000-0 +12515-3 0  9999
2 41871 051.6369 067.9847 0005636 270.1680 089.8652 15.24100821077699
Source of the keplerian elements: AFSPC